Theta_e
355 352 351 351 352 352 352 352 352 351 352 352 352 352 352 352 352 353 353 354 355 356 357 358 358 357 355 350 349 353 353 352 354 353 353 352 352 352 351 351 351 351 352 354 354 352 352 353 353 354 353 352 352 351 351 351 349 344 343 346 348 348 348 346 346 344 342 342 341 341 341 341 341 341 341 342 341 341 338 336 340 344 345 345 345
355 354 352 351 351 351 351 351 352 352 351 352 352 352 352 352 353 353 353 354 354 356 356 357 358 357 355 349 347 351 349 349 350 348 347 345 344 344 344 346 347 348 350 352 353 352 351 351 352 353 354 353 351 350 351 351 350 347 346 347 348 347 348 347 346 343 342 341 341 341 342 341 342 342 342 342 342 342 341 337 337 342 344 345 345
356 356 354 353 352 351 351 351 351 353 352 352 352 352 352 351 352 353 353 353 353 355 356 356 356 356 355 351 350 351 348 347 348 347 345 344 341 342 343 345 345 347 348 350 351 353 352 352 352 352 353 353 350 349 350 350 350 348 347 347 347 346 346 346 345 344 343 342 341 342 343 342 343 342 341 343 343 343 342 339 336 337 341 345 345
356 355 354 354 353 354 353 353 353 353 352 351 350 350 350 350 352 353 353 354 355 357 356 354 353 353 354 351 350 351 350 348 346 345 344 344 344 344 345 344 344 346 347 348 349 350 351 351 351 351 351 349 348 348 347 347 348 348 347 347 346 345 344 345 344 344 343 343 342 343 342 342 343 342 341 342 342 342 341 339 336 335 338 342 344
355 355 352 351 352 354 354 354 354 353 349 348 348 345 345 347 348 349 351 352 352 351 350 348 348 349 349 349 349 349 349 349 347 346 345 345 345 345 345 345 344 345 347 347 346 347 348 350 350 350 350 346 346 347 345 344 345 344 345 346 345 345 343 344 344 343 343 343 343 344 344 343 344 342 341 342 341 341 341 339 337 336 336 339 343
353 351 349 348 349 352 354 353 351 348 344 344 344 342 341 341 341 342 344 345 344 343 343 342 343 344 344 345 347 347 348 346 346 345 345 346 346 346 346 346 346 346 346 345 345 345 345 347 348 349 349 347 346 347 345 344 345 344 345 346 345 345 344 343 342 341 342 343 342 342 344 343 343 342 343 345 343 340 340 339 339 337 337 339 342
351 349 346 344 343 345 349 348 343 340 340 340 340 339 339 338 337 338 338 339 338 337 337 336 337 339 340 341 343 345 345 344 342 343 344 346 346 346 345 345 346 345 345 344 343 344 343 344 345 347 348 347 346 346 344 344 346 346 345 345 346 345 342 340 339 341 342 343 342 342 343 342 342 342 343 345 346 344 341 340 340 339 339 340 341
353 352 350 343 338 340 342 342 338 338 340 338 338 337 337 336 336 336 336 335 335 334 334 334 335 336 337 337 338 339 342 342 341 342 343 343 343 343 343 343 344 344 344 343 342 343 343 342 343 345 347 347 345 344 345 345 346 345 343 344 345 343 341 341 340 341 343 344 343 343 343 343 343 342 341 341 344 346 344 342 341 341 341 341 341
352 354 351 341 336 337 338 337 338 340 340 338 338 337 336 336 335 335 334 333 333 333 332 332 333 333 334 335 335 336 339 340 340 340 340 340 340 339 340 341 342 342 342 342 342 342 342 343 343 344 345 346 344 342 344 345 343 342 342 343 345 341 341 342 341 341 343 343 344 344 344 344 343 342 340 339 341 344 344 343 343 342 342 343 342
350 349 344 339 336 335 336 337 339 340 341 340 339 337 336 336 335 333 332 330 329 329 329 330 332 332 332 334 335 335 337 338 338 338 338 339 338 337 338 339 340 340 341 342 342 341 341 342 343 344 345 345 344 343 344 343 341 341 343 344 344 340 338 339 341 343 343 343 345 345 344 345 343 340 338 338 340 341 342 342 342 343 343 342 342
349 347 341 338 337 336 337 338 339 339 341 342 341 338 337 335 334 332 330 327 326 326 327 329 331 332 332 334 335 335 336 338 339 338 338 338 337 337 337 337 338 339 340 340 340 340 340 341 342 343 343 342 339 339 342 342 340 341 343 344 343 340 338 338 343 344 343 344 345 345 345 345 344 341 339 340 340 340 341 340 341 342 342 342 341
347 348 344 339 337 338 339 339 340 340 342 342 339 337 336 335 333 330 327 325 325 325 326 328 331 332 331 333 334 335 336 338 338 338 337 338 337 336 336 336 337 337 338 339 339 339 339 340 340 340 341 339 336 336 340 342 342 342 342 341 339 340 341 341 344 345 344 344 345 345 344 343 344 343 342 341 341 341 341 341 341 342 342 342 341
345 347 348 343 337 338 340 339 339 341 341 339 337 336 335 334 331 328 326 325 325 325 325 327 331 331 330 332 333 333 334 335 336 335 335 336 336 336 336 337 337 337 337 338 338 338 339 339 339 339 340 339 338 337 338 339 340 341 342 342 341 342 344 344 345 345 344 345 345 345 344 342 343 344 344 343 341 341 341 341 342 342 342 342 341
345 346 350 347 339 337 339 339 340 341 339 337 336 336 334 332 331 329 327 327 326 326 326 328 331 330 329 330 331 331 332 332 333 333 333 334 335 336 336 336 336 336 336 336 337 338 338 339 339 339 340 340 340 339 338 338 338 339 341 342 341 341 342 343 343 343 344 344 344 344 344 343 343 345 344 342 341 341 342 342 342 343 342 342 341
345 346 348 343 337 337 338 338 340 340 337 336 336 335 334 333 331 329 329 329 328 328 329 330 330 329 329 329 330 331 331 331 331 331 332 332 334 335 334 334 334 333 334 335 336 336 336 337 337 337 338 339 340 340 340 340 340 339 340 339 339 339 339 340 341 342 343 343 343 343 344 344 343 344 343 341 340 340 341 343 343 343 344 343 342
343 346 347 340 335 336 336 336 340 339 336 335 336 335 334 333 332 331 331 330 328 328 330 330 329 329 330 330 330 330 330 330 330 330 331 332 332 333 333 333 333 332 333 334 334 335 335 335 335 334 335 335 336 337 337 338 338 339 339 339 339 339 339 340 340 341 342 342 343 343 343 343 343 342 342 341 341 341 341 342 343 343 344 344 343
343 345 346 339 335 334 334 336 339 338 335 334 335 335 335 334 332 332 332 330 328 329 330 331 329 329 330 331 330 329 329 330 330 329 330 331 331 331 332 331 332 332 333 333 333 334 334 334 334 333 333 333 333 334 334 335 336 337 338 338 339 339 339 340 340 340 341 340 341 342 342 342 341 341 341 341 342 342 341 342 342 342 342 344 345
342 343 341 336 333 334 335 337 338 337 334 333 334 336 335 334 334 333 332 331 329 329 330 330 329 328 329 330 329 329 329 330 330 329 330 329 329 330 331 331 331 332 332 333 334 334 334 333 332 331 331 331 331 331 331 332 333 334 336 336 337 338 338 339 339 339 339 340 339 340 340 340 340 340 340 340 341 342 342 342 342 342 342 342 343
341 342 342 337 332 333 335 337 338 336 334 334 335 335 335 334 334 334 333 332 330 330 330 330 329 328 328 328 328 328 330 330 330 330 329 328 327 329 331 332 332 332 333 333 334 333 332 330 330 330 329 328 328 328 329 329 331 332 334 335 335 336 337 337 339 339 339 339 340 339 340 340 339 339 339 339 340 341 341 341 341 341 342 342 342
341 342 343 338 331 332 335 335 337 335 334 336 336 336 336 335 335 334 333 333 331 330 330 329 329 328 327 327 328 328 329 329 329 329 329 328 327 329 331 331 333 333 333 333 333 333 331 330 330 330 328 328 328 328 329 330 331 332 332 333 334 335 336 337 337 339 339 340 340 339 339 339 339 338 338 338 339 339 340 341 341 341 342 342 342
340 341 341 335 330 331 334 334 336 336 335 337 337 337 337 336 335 335 333 333 332 330 330 329 329 327 326 326 327 328 329 329 329 329 329 329 328 329 330 330 332 333 333 333 333 332 331 331 331 331 331 330 330 330 330 331 331 332 332 332 333 335 335 336 337 338 339 339 340 340 339 340 339 338 338 338 338 339 339 339 340 341 341 342 342
339 340 339 333 329 330 332 334 335 336 337 338 338 338 337 337 336 335 334 333 332 331 331 329 328 327 325 325 326 328 328 328 328 328 328 328 328 329 330 329 330 332 333 333 333 333 333 333 333 334 333 333 332 332 331 332 331 331 332 332 333 334 335 336 336 337 338 339 339 339 339 339 339 338 338 338 338 338 338 339 339 340 340 341 341
338 338 335 330 329 330 332 334 335 336 337 338 338 338 338 337 336 335 334 333 332 332 330 328 327 325 325 325 327 327 328 328 328 328 328 328 328 329 329 329 329 330 331 331 331 332 332 333 334 334 334 334 334 333 332 332 332 332 332 332 332 333 334 335 336 337 338 338 339 338 339 339 339 338 338 338 338 337 337 337 338 339 340 340 341
338 337 333 328 329 331 331 334 335 335 337 338 338 338 337 337 337 335 334 334 333 332 330 327 325 325 324 325 327 327 327 328 328 328 329 328 328 328 328 328 328 328 329 328 328 329 329 330 332 333 334 334 333 332 332 332 332 332 332 332 333 334 335 335 336 336 337 338 338 338 338 338 338 338 338 338 337 337 337 337 338 338 339 340 340
340 339 339 335 333 332 331 334 335 335 337 337 338 338 337 338 337 335 335 334 332 330 330 328 326 325 324 324 326 328 328 328 328 328 329 329 329 329 328 328 328 328 328 327 327 327 327 328 329 332 333 332 331 331 331 331 330 330 330 331 333 334 334 335 335 336 336 337 337 337 338 338 339 339 338 338 338 338 338 338 338 338 338 339 340
340 341 342 341 336 332 331 334 335 335 336 337 336 337 337 337 336 336 334 333 331 330 329 328 327 326 324 324 326 327 327 327 327 328 328 329 330 330 329 328 327 327 328 328 327 327 327 327 327 329 330 330 330 330 329 329 329 329 329 330 331 332 332 333 334 334 335 336 337 337 338 338 339 339 339 339 338 338 338 338 338 338 338 338 339
340 342 341 341 340 335 331 333 334 335 336 336 337 336 336 336 335 334 332 331 330 329 328 327 326 325 325 325 325 326 326 326 327 327 327 328 330 331 331 330 329 328 328 328 328 328 328 327 326 327 328 328 330 330 329 329 329 329 329 329 329 330 331 331 332 333 335 336 337 337 337 338 339 339 339 339 339 338 338 338 338 338 338 338 338
340 342 341 343 345 339 332 331 334 334 335 336 336 336 336 336 334 331 329 328 328 328 327 326 326 325 325 325 325 324 325 326 326 326 327 328 330 331 332 331 330 329 328 328 328 328 328 327 326 326 327 328 330 331 329 329 328 327 326 326 327 328 329 330 331 332 333 335 336 337 336 337 338 339 339 339 339 338 338 338 338 338 337 337 337
342 342 342 343 346 342 333 331 334 334 335 336 336 337 337 335 333 330 327 326 326 327 326 326 326 325 324 326 326 325 324 326 326 326 326 327 328 330 331 331 331 330 329 328 328 327 327 328 327 327 327 327 329 330 329 329 328 325 324 324 324 325 327 328 330 331 331 333 334 336 336 336 336 337 337 338 338 338 338 338 338 338 338 337 337
341 341 340 342 343 338 331 332 334 333 335 336 335 336 336 334 332 329 326 324 324 326 325 325 326 325 324 325 327 326 325 326 326 325 325 326 327 328 330 332 332 330 329 328 328 328 327 327 328 328 327 328 330 329 328 329 328 325 324 324 324 325 326 327 328 330 331 331 332 334 335 335 336 336 336 337 337 337 337 338 338 338 338 338 337
340 339 339 340 339 334 330 332 333 333 336 335 334 334 334 332 332 329 326 324 324 325 325 325 326 325 324 326 326 326 325 325 325 325 325 326 327 328 330 330 330 328 327 327 327 327 328 327 328 328 328 329 330 328 327 328 327 324 324 325 325 325 327 327 329 329 330 331 332 333 334 335 336 336 336 336 336 336 337 337 338 338 339 338 338
339 338 339 340 339 336 331 330 332 334 336 334 332 333 333 332 331 329 327 325 324 325 325 325 326 324 324 325 325 326 325 325 325 325 326 327 328 329 329 329 328 326 324 325 326 327 328 327 328 329 328 329 329 327 326 327 325 324 325 326 326 326 327 329 330 330 331 331 332 333 334 335 336 336 336 336 336 336 336 337 337 338 338 339 338
339 339 340 340 337 333 330 330 332 334 334 331 331 332 331 330 328 328 328 326 325 325 325 325 326 325 325 325 326 326 325 325 325 324 325 327 329 328 328 326 325 324 324 325 326 327 328 328 328 329 328 327 327 326 326 327 325 324 325 325 325 325 326 327 328 330 332 333 333 334 335 335 336 336 336 336 336 336 337 336 336 337 338 338 339
337 339 339 335 332 330 330 331 332 332 331 330 331 331 330 329 328 328 328 327 326 326 325 325 326 325 326 326 326 327 326 324 323 322 324 328 328 328 326 325 325 325 324 326 327 328 328 327 327 328 328 327 327 325 325 327 326 325 325 324 323 323 324 324 324 325 328 331 332 334 335 336 337 337 337 338 337 338 338 337 336 335 335 337 338
338 341 338 331 329 329 329 330 331 331 330 330 330 330 330 329 328 328 328 328 327 327 326 326 326 326 326 327 327 327 326 323 322 322 324 326 327 327 327 326 326 325 325 326 326 327 328 328 327 328 328 327 327 325 324 327 327 326 325 323 321 321 322 322 321 322 323 325 327 329 331 333 335 336 337 337 338 338 338 339 338 336 335 335 336
337 337 334 329 329 329 329 330 330 329 330 331 330 330 330 330 329 329 329 329 328 328 328 327 327 327 326 327 327 326 324 324 323 322 324 325 325 326 326 325 325 325 326 326 325 325 327 327 327 329 328 328 327 325 324 327 328 327 326 323 321 321 321 320 320 320 320 321 323 325 327 328 331 334 336 336 337 338 338 339 339 337 335 335 335
331 330 330 329 329 330 329 329 329 329 330 331 329 330 330 330 329 329 329 330 329 329 329 328 328 328 327 327 327 325 324 324 323 322 324 325 324 324 324 323 324 325 326 325 324 323 324 323 325 327 328 328 328 326 327 328 328 327 326 323 320 320 320 320 320 320 319 320 320 322 324 325 327 330 333 336 338 338 339 339 338 338 336 336 336
327 326 328 328 328 329 329 328 329 329 330 330 330 331 331 330 330 330 329 330 330 330 330 329 329 328 328 328 328 327 326 325 322 321 323 323 323 323 322 322 324 326 327 326 325 324 322 322 322 323 327 329 328 326 327 329 327 327 327 325 322 321 321 320 320 319 319 319 319 320 321 323 324 327 330 333 336 337 338 339 340 339 338 337 337
327 326 327 328 329 329 329 329 330 330 330 330 330 330 330 331 330 330 330 330 330 330 330 330 330 329 329 329 329 328 326 323 321 321 321 322 322 322 321 321 322 325 325 325 325 324 322 322 321 321 324 328 327 326 327 328 327 327 329 327 324 322 321 320 321 320 320 319 319 318 319 321 322 325 327 330 333 335 337 338 340 340 339 338 338
327 327 328 328 329 329 329 329 329 330 330 330 330 330 331 331 330 330 331 331 330 330 330 330 331 330 329 329 329 328 326 322 321 321 320 321 322 321 320 321 321 322 322 322 324 325 323 322 322 322 322 325 326 326 327 328 328 329 330 328 326 324 322 322 321 321 321 321 320 318 318 319 320 323 325 328 330 332 335 336 337 338 338 338 338
327 328 328 329 328 328 329 329 330 330 330 329 330 331 330 330 331 331 331 330 329 329 329 329 329 329 328 328 328 328 325 322 320 321 321 321 320 320 320 321 321 321 321 321 323 324 324 323 323 322 321 322 325 327 327 327 328 330 330 329 329 327 325 323 323 322 322 322 321 320 318 318 319 320 323 326 327 328 331 332 333 335 335 336 337
327 329 328 328 329 329 329 329 329 329 330 330 330 330 331 330 331 330 329 328 328 327 327 327 327 328 327 327 328 328 324 321 321 321 320 320 320 320 320 321 321 321 321 321 322 323 323 323 323 324 322 321 323 326 327 327 328 329 329 328 330 329 327 326 324 324 324 324 323 321 320 318 319 318 319 322 324 326 327 328 328 331 334 335 335
327 328 329 329 329 328 328 329 330 329 329 330 330 330 330 330 330 329 328 327 326 325 325 327 328 328 328 328 329 328 323 321 321 320 319 319 320 320 321 321 321 321 321 321 321 321 322 322 323 323 323 321 321 325 328 328 328 329 330 330 330 330 329 328 327 326 326 325 325 325 322 320 319 318 319 320 321 322 325 327 326 328 331 334 335
327 327 329 331 330 329 329 329 330 330 330 330 330 330 329 329 329 328 327 326 325 324 326 327 327 327 328 330 330 325 321 321 322 320 319 320 320 320 321 321 321 321 321 321 321 321 321 321 322 323 323 322 321 322 326 328 326 326 329 330 332 332 330 329 328 328 328 328 327 327 326 323 320 318 319 321 321 320 321 324 326 326 328 331 333
327 327 329 330 330 330 328 328 329 330 329 329 328 328 328 328 327 327 326 325 324 326 327 328 326 324 326 329 328 323 321 322 320 319 319 320 320 321 321 321 321 321 321 321 321 321 321 321 322 322 323 323 321 321 323 325 323 322 323 325 328 331 331 330 328 328 328 329 328 328 327 325 322 321 321 322 323 321 320 321 323 324 326 327 328
328 327 327 329 330 330 327 328 328 328 328 328 327 326 327 327 326 326 325 324 325 327 328 328 325 323 325 328 326 321 320 321 320 320 320 320 320 322 321 321 322 321 321 321 320 320 321 321 321 322 322 323 322 321 321 321 321 320 320 320 322 326 329 330 329 329 329 329 328 328 328 328 326 325 325 324 325 324 321 320 320 321 322 323 324
325 327 327 328 330 329 327 327 327 327 326 326 325 325 326 326 326 325 325 325 327 328 327 326 324 324 326 327 323 320 320 320 320 321 320 320 321 322 322 321 321 321 321 321 320 320 320 320 321 321 322 323 322 321 320 320 320 320 320 319 319 320 322 324 327 329 329 328 327 327 327 327 326 327 327 327 327 326 324 321 319 319 320 322 322
323 324 325 328 329 327 326 326 326 326 325 324 324 326 325 326 326 327 327 328 328 328 325 324 324 326 328 326 322 320 320 321 321 321 321 320 321 322 322 322 321 321 320 320 319 320 319 319 320 320 321 322 322 321 321 320 320 321 320 319 319 319 318 319 322 324 325 325 325 324 323 324 324 324 324 325 327 328 327 324 322 320 321 323 322
322 323 324 327 327 326 325 325 325 325 324 324 324 325 326 326 327 327 328 328 328 326 324 323 324 327 328 325 321 321 321 320 321 321 320 320 322 322 322 322 321 320 319 319 319 319 319 319 320 319 319 320 320 320 320 319 320 321 320 319 318 318 318 318 319 320 321 321 322 322 321 322 322 323 323 323 324 326 327 327 325 324 324 324 323
322 323 323 325 326 326 325 325 324 324 324 324 325 325 326 326 327 328 329 328 327 326 324 322 323 325 326 324 321 321 321 321 321 321 321 321 322 322 322 322 321 320 319 318 318 319 319 320 320 319 319 318 317 318 318 318 319 320 319 318 318 318 319 319 319 320 320 320 320 320 321 322 322 323 323 322 323 324 326 328 328 327 326 326 325
324 324 323 324 325 325 325 325 324 325 325 325 325 325 325 325 326 326 327 327 326 326 324 323 323 323 324 323 321 321 321 321 321 321 320 321 322 323 322 321 320 319 319 318 318 318 319 320 320 320 320 319 318 318 318 318 318 318 318 319 319 319 319 319 319 319 320 319 320 320 321 321 322 322 323 322 322 324 326 327 328 328 327 327 326
Wind_Speed
2 4 7 8 10 11 12 13 13 14 14 14 14 15 16 17 18 19 19 18 16 16 17 17 18 18 17 14 15 21 23 21 22 22 21 21 21 21 22 24 26 28 30 31 31 31 31 32 33 33 35 35 34 34 35 35 35 35 33 32 31 30 31 31 29 25 18 16 17 18 22 24 25 26 27 28 27 27 27 27 26 25 26 25 24
3 4 5 7 8 8 9 11 11 12 12 12 13 13 13 13 14 16 16 15 14 13 13 13 15 16 15 11 11 14 16 15 16 15 14 14 15 16 16 17 19 21 25 28 30 29 28 30 31 32 34 36 34 32 34 34 34 35 34 31 30 30 30 30 30 23 16 14 11 8 14 20 23 26 28 31 30 29 29 29 29 28 29 28 27
3 3 4 6 7 8 9 9 10 10 9 9 9 8 8 7 8 9 10 9 8 7 8 9 10 10 10 8 8 9 10 10 12 13 13 14 14 15 15 16 17 18 20 24 28 30 29 29 30 31 32 32 32 30 30 33 35 36 35 33 29 27 27 28 29 27 21 15 7 4 5 6 11 17 23 30 32 31 30 30 31 31 32 31 29
3 2 2 4 6 7 8 8 8 7 6 5 4 3 2 1 1 0 0 2 3 4 6 7 8 8 8 6 6 8 9 10 13 14 15 16 17 17 17 17 18 19 19 21 25 28 30 30 30 32 31 29 30 32 30 30 34 35 35 34 28 22 22 25 29 30 25 16 6 3 3 1 5 7 11 20 26 28 30 30 32 33 34 33 32
5 4 3 4 6 7 7 7 7 7 7 7 6 6 6 5 5 5 4 3 3 4 5 7 7 7 8 7 7 7 7 9 12 14 15 17 19 20 20 20 19 19 19 20 23 26 28 31 31 33 32 27 27 32 35 35 34 33 33 34 30 28 28 25 23 26 28 24 15 7 4 3 5 5 5 11 15 20 24 28 31 34 35 34 34
6 6 6 7 8 9 8 9 9 9 8 8 7 7 7 6 6 5 5 5 6 6 7 8 8 7 7 7 7 7 8 9 10 13 15 16 19 21 21 21 20 19 19 19 22 25 26 28 31 32 32 30 29 31 35 37 37 36 33 30 31 36 32 19 15 20 25 28 24 18 14 8 4 4 3 4 7 12 17 22 28 32 34 34 33
4 5 5 7 9 10 11 11 10 9 7 7 7 6 6 5 6 6 6 6 6 7 8 9 9 8 8 8 8 7 8 10 11 12 14 16 18 19 19 20 20 20 20 19 20 24 24 25 28 29 28 29 31 30 31 35 38 39 34 31 35 36 26 18 20 25 23 23 26 28 28 22 13 6 3 2 3 6 11 17 22 26 30 32 34
5 5 5 6 10 11 12 12 10 7 6 6 6 6 6 6 6 6 6 6 6 7 7 8 8 8 8 7 7 7 8 11 12 13 13 14 16 17 17 18 19 19 19 18 19 21 22 20 23 27 28 27 26 27 31 34 36 35 32 33 36 31 25 27 31 30 24 22 24 27 29 28 23 16 11 9 4 3 7 10 15 20 23 27 30
6 6 6 8 11 12 12 12 9 6 5 5 5 5 4 5 5 4 5 6 7 8 8 8 7 7 8 8 9 10 10 11 12 13 13 13 15 16 17 17 17 18 18 18 18 19 20 18 17 21 25 25 24 26 31 31 29 30 31 32 31 26 28 33 33 29 27 25 23 23 26 27 25 20 18 16 10 8 7 5 9 13 15 21 25
6 6 8 11 14 13 11 10 7 6 5 4 4 4 4 3 2 3 5 7 8 8 9 8 8 8 8 9 11 11 11 12 12 12 13 14 16 17 18 17 17 18 18 18 18 17 18 18 15 16 19 19 20 23 28 27 24 27 32 32 29 26 27 30 30 28 27 26 25 23 23 24 19 13 16 20 16 12 10 7 9 10 10 16 22
6 5 8 12 14 11 9 9 7 6 6 5 6 6 4 2 0 3 6 8 9 11 11 10 8 9 9 10 11 12 11 11 11 11 12 14 15 17 18 18 17 17 17 16 16 16 17 18 17 18 19 17 16 19 24 26 24 29 31 29 30 31 28 27 27 28 26 26 27 25 25 24 19 14 18 22 16 12 11 9 11 14 14 17 23
6 5 7 9 10 9 8 8 7 7 8 8 8 6 4 2 1 3 5 7 9 11 11 10 9 9 10 10 11 12 12 11 11 11 12 12 14 16 16 17 16 15 14 14 14 15 16 16 16 19 19 17 17 18 20 20 21 24 25 27 30 30 27 24 24 26 25 25 27 29 30 30 27 25 26 26 23 20 15 7 9 13 12 18 25
6 6 6 6 7 9 9 8 8 9 10 10 8 5 3 1 2 2 4 6 8 10 10 10 9 10 11 11 11 12 13 13 13 13 13 13 13 14 15 15 15 14 13 13 13 14 14 14 15 17 17 16 17 19 19 18 19 19 20 25 29 27 23 23 24 25 26 28 29 30 31 32 32 32 31 28 27 26 19 10 12 13 10 13 20
6 6 5 5 7 10 10 10 10 12 12 10 7 5 3 3 2 2 3 6 7 8 9 9 9 11 13 13 13 13 14 14 15 15 15 14 13 13 14 14 14 15 14 14 13 13 13 13 14 16 16 16 15 17 18 19 20 21 22 24 26 25 24 24 25 26 28 30 31 30 31 32 33 34 32 29 27 25 22 15 12 13 12 12 14
5 5 5 6 9 10 10 11 13 13 12 9 8 6 5 4 3 2 3 5 6 6 6 7 9 11 13 13 12 13 14 15 15 16 16 15 14 13 14 13 14 15 15 14 14 13 14 14 14 15 15 15 15 16 17 19 20 21 23 25 25 26 26 27 27 28 29 29 30 31 31 31 32 33 32 31 31 29 26 23 17 11 11 10 10
6 5 5 6 9 10 10 12 14 13 12 10 9 8 7 6 5 3 3 5 5 5 5 6 8 10 10 10 10 11 13 14 15 16 16 15 14 14 14 14 14 14 14 14 14 14 14 15 16 17 16 16 16 17 18 19 20 21 23 25 26 26 26 27 29 29 29 29 30 31 31 32 33 33 33 32 34 33 30 28 23 16 12 8 7
6 6 6 7 9 10 11 13 14 14 12 10 10 9 9 7 6 4 4 5 5 6 5 6 8 9 9 9 10 11 12 12 13 15 15 14 14 14 14 14 14 13 13 12 13 13 14 14 16 17 18 18 18 19 19 19 20 21 22 24 26 27 26 27 29 30 31 31 31 32 31 32 32 31 32 33 33 33 32 30 28 25 18 10 8
6 6 6 7 10 12 13 14 15 14 12 11 10 10 10 8 6 5 5 6 6 6 7 7 7 8 9 9 10 11 11 11 12 13 14 14 13 13 12 13 12 12 12 11 11 11 11 11 13 14 16 17 18 19 20 21 21 20 22 24 26 27 27 29 30 31 32 31 31 32 31 30 30 30 31 34 33 32 31 31 30 30 26 17 12
6 6 6 7 10 13 14 14 14 14 13 11 11 11 10 9 8 7 6 7 7 7 8 8 8 9 9 10 11 11 11 11 11 12 12 13 12 12 12 12 12 12 11 11 10 9 9 9 12 14 16 17 19 20 22 23 23 22 22 24 26 27 28 30 30 31 32 31 29 31 31 29 29 30 31 33 34 34 32 31 31 30 29 27 22
7 7 6 7 11 14 15 15 16 15 13 12 12 12 11 10 9 8 8 8 8 8 8 8 8 9 10 11 11 11 12 12 12 12 13 12 12 12 13 13 13 13 12 11 9 8 9 11 13 15 17 19 21 23 24 25 25 25 25 26 27 27 28 30 31 31 32 31 30 30 31 30 29 30 31 32 34 35 34 33 32 31 30 29 28
7 8 7 7 11 13 13 15 16 14 13 13 13 13 12 10 10 9 9 9 9 9 8 8 7 8 10 11 12 12 12 12 13 13 13 13 12 12 13 14 14 13 13 12 11 10 11 13 14 16 18 20 23 25 26 27 27 27 27 27 27 28 29 30 31 32 32 32 32 32 32 32 31 30 30 32 33 34 34 33 33 31 30 30 29
8 8 7 8 10 11 12 14 15 14 14 14 14 14 12 11 10 10 10 11 10 10 8 7 7 8 10 11 12 11 11 12 14 15 14 12 12 12 13 14 14 14 14 13 13 13 14 15 17 18 19 21 23 25 26 26 27 27 27 27 27 27 29 31 32 33 33 33 33 34 32 32 33 31 30 30 29 30 32 33 33 31 31 32 30
8 7 7 8 10 11 12 13 14 15 15 16 15 14 13 12 11 11 12 12 11 10 8 6 7 8 9 10 11 10 10 12 13 14 14 12 11 12 12 13 14 14 14 14 14 15 16 16 17 19 20 21 22 24 25 27 27 27 28 28 28 28 29 31 32 33 34 34 34 35 34 34 34 31 30 29 28 29 30 31 32 32 32 32 32
7 6 5 7 8 10 11 13 15 15 16 17 16 15 14 13 12 12 13 12 10 9 8 7 7 9 9 10 10 10 10 11 12 13 13 13 12 12 12 13 13 14 14 14 14 14 15 16 18 19 20 20 22 24 26 27 26 26 27 27 27 28 29 30 32 33 34 34 34 35 36 37 35 33 32 32 31 31 32 32 32 32 32 33 33
7 6 5 6 7 9 11 13 16 17 18 17 16 15 14 14 13 13 13 11 9 8 8 8 9 10 10 10 10 10 10 11 12 13 13 13 14 13 12 12 13 14 14 13 14 14 15 17 19 19 19 20 22 23 24 24 23 23 24 24 25 26 27 28 30 31 32 32 33 34 36 37 36 34 34 33 34 33 33 33 32 32 32 32 32
8 7 6 6 6 8 11 14 17 18 18 18 17 16 15 14 14 13 12 11 9 8 9 9 9 10 10 10 11 10 10 11 12 13 14 14 15 15 14 13 13 14 13 13 14 15 16 18 19 19 19 20 21 21 21 21 21 23 25 25 25 24 25 26 27 28 30 31 32 33 34 35 36 35 35 34 33 34 33 33 33 32 32 32 32
8 6 6 6 6 7 11 15 18 19 19 19 19 17 15 14 14 12 11 11 10 9 9 9 9 10 10 11 11 11 10 11 12 13 14 15 15 16 16 15 15 14 13 13 14 15 15 16 18 19 19 20 20 19 19 20 21 24 26 27 28 27 26 26 25 26 28 29 30 31 31 33 34 35 36 35 34 33 33 34 34 33 31 31 31
6 6 6 7 7 7 10 16 19 19 20 20 19 15 13 13 13 12 11 11 11 10 10 9 9 9 10 11 11 11 11 12 13 13 14 15 16 16 17 17 17 16 15 14 14 15 16 16 17 18 19 20 20 18 18 19 21 25 27 28 30 29 27 27 26 26 26 28 30 31 31 31 33 35 36 36 35 35 34 33 33 33 31 31 31
8 7 7 7 7 7 11 16 18 18 20 20 17 14 13 14 14 12 11 11 11 11 11 10 9 10 10 10 11 12 12 13 13 13 13 15 16 16 16 17 18 18 16 15 14 16 17 18 18 18 19 20 19 18 18 19 22 26 28 31 33 32 29 27 27 27 27 28 30 32 34 34 35 37 37 37 37 37 35 33 32 33 32 31 31
9 8 8 7 8 9 12 16 16 17 20 19 16 14 15 16 15 13 12 10 10 11 11 10 10 10 10 11 12 12 13 13 14 13 14 15 16 16 16 17 18 18 17 17 17 18 18 18 17 17 18 19 18 17 18 19 21 25 29 32 35 35 32 29 28 28 28 29 30 32 35 37 38 38 39 40 40 40 39 37 35 34 34 33 31
9 8 7 7 7 8 12 14 16 19 20 18 15 15 16 17 16 15 13 11 10 11 11 10 10 10 11 12 12 12 13 14 13 14 15 16 17 15 15 16 17 18 18 18 19 19 17 16 16 16 17 18 18 18 18 20 22 25 29 33 34 33 32 31 29 28 28 28 30 32 33 36 38 38 39 40 42 43 44 43 40 38 37 37 35
9 8 8 8 8 9 12 15 18 21 21 17 15 16 17 18 18 16 14 12 12 12 11 10 11 11 11 11 11 12 13 13 14 15 16 16 15 14 14 16 16 17 18 18 19 19 17 16 15 15 15 16 18 18 17 20 23 25 29 31 30 29 29 30 29 29 28 27 27 29 30 32 36 38 39 40 42 44 46 47 46 43 42 41 40
9 9 9 9 10 13 17 20 22 23 20 17 16 17 18 18 17 16 15 14 13 12 11 11 11 11 12 12 12 13 13 14 14 15 15 15 13 12 13 15 16 16 18 19 20 19 18 15 14 14 15 16 17 17 17 19 22 26 28 29 28 27 26 26 27 24 24 25 25 27 29 31 33 35 38 40 42 43 44 47 48 48 46 45 44
8 9 9 10 13 17 20 22 24 23 19 16 17 18 18 17 16 16 15 15 14 13 13 13 12 13 13 13 13 13 13 13 14 16 16 14 13 12 13 15 16 16 18 19 19 19 17 15 14 14 15 17 17 17 16 18 22 25 27 26 26 26 24 24 27 24 15 12 16 21 25 28 29 31 34 37 40 40 40 41 44 46 48 47 46
8 9 9 10 14 18 19 23 25 23 19 18 20 20 19 18 17 17 16 15 15 15 15 15 14 14 14 14 15 14 13 13 15 16 16 14 13 13 14 15 16 16 17 17 17 17 17 16 15 15 16 18 18 17 16 18 21 24 25 25 25 25 24 24 27 26 23 20 17 15 17 21 25 28 31 34 36 37 37 38 39 42 45 46 45
11 12 13 16 21 23 24 26 25 22 20 21 21 20 20 19 19 18 18 17 16 16 16 16 16 16 16 16 15 14 13 14 15 16 15 13 13 14 14 14 16 15 14 14 14 16 17 17 17 16 16 18 20 17 16 18 20 21 23 24 24 23 23 26 28 26 26 28 26 22 19 16 17 22 27 32 35 37 38 37 36 39 41 42 43
15 17 19 22 26 27 27 26 22 21 22 23 22 21 21 21 21 20 19 18 18 18 17 16 15 15 15 15 14 13 14 14 14 15 14 13 13 14 13 14 15 15 13 12 13 14 15 17 18 17 16 18 20 18 17 17 18 19 20 21 23 23 24 26 28 27 25 26 28 29 28 24 18 15 17 23 28 33 37 35 32 34 36 36 38
14 16 17 19 22 25 24 22 20 21 24 24 23 23 23 23 22 22 20 20 19 20 18 16 15 14 13 13 13 14 14 14 13 13 13 13 13 13 12 13 15 14 12 12 13 14 15 16 18 18 16 16 18 17 16 16 16 16 17 19 21 22 24 25 26 24 23 23 27 30 33 32 29 23 14 12 16 23 31 33 30 28 29 31 32
14 16 17 19 21 22 21 20 20 23 25 24 24 24 23 23 23 22 20 20 22 22 19 17 15 13 12 11 12 13 13 12 11 12 12 13 12 11 11 13 14 14 13 14 14 14 15 17 18 19 17 14 15 15 14 14 15 15 15 17 19 20 21 22 23 22 21 22 27 30 32 32 32 31 24 15 9 9 19 26 26 26 27 29 32
16 18 19 19 20 20 21 21 24 27 26 24 24 24 24 24 23 21 20 21 22 21 18 16 15 13 12 12 12 12 12 11 11 12 12 12 10 10 11 13 13 14 14 15 14 14 16 17 18 20 19 14 12 12 12 12 14 15 15 15 16 16 17 19 20 21 21 22 26 29 31 32 31 32 31 26 19 10 3 12 16 19 21 23 28
17 19 20 20 21 22 24 26 29 28 25 23 23 23 23 23 22 20 21 21 20 18 16 15 14 13 13 12 11 11 11 11 11 11 12 10 8 9 11 12 12 14 14 14 14 13 15 17 17 18 19 15 11 11 12 12 12 14 16 15 15 14 14 15 17 18 19 21 24 26 29 30 30 30 30 29 27 22 14 8 6 10 13 15 19
17 18 20 22 22 22 24 28 28 26 23 22 21 21 22 22 20 20 21 19 17 15 14 13 13 13 13 13 12 11 11 11 10 10 9 8 8 9 10 10 11 13 14 15 14 13 13 15 16 16 17 16 11 11 12 13 12 12 14 15 14 14 13 13 14 16 17 19 20 22 24 27 28 28 27 27 26 25 22 19 14 6 8 11 14
17 19 21 22 21 22 25 27 25 22 21 20 19 20 20 20 20 21 19 16 15 14 13 12 13 13 13 13 12 10 10 10 9 8 7 8 9 10 9 9 10 12 14 15 14 14 13 14 15 15 15 15 14 12 12 13 13 13 13 14 14 13 13 12 13 14 16 17 18 19 20 23 24 24 23 24 24 23 23 21 19 16 11 8 11
19 21 22 21 21 22 23 22 19 18 20 20 19 19 19 19 20 20 16 15 15 13 11 12 14 14 13 12 11 9 9 9 7 6 7 8 9 9 8 8 10 12 13 14 15 15 15 15 15 15 14 13 14 14 13 12 13 13 13 13 13 13 12 13 13 14 14 15 17 18 17 18 20 20 19 21 23 23 23 21 20 21 19 16 13
17 19 19 18 20 21 18 16 16 18 19 19 19 18 18 19 20 18 15 14 14 12 12 14 15 15 14 13 11 9 8 7 6 5 7 8 8 7 7 8 10 11 12 14 15 15 15 16 16 15 13 12 12 14 14 13 13 13 14 13 12 12 12 12 13 14 15 15 16 16 15 15 16 17 18 20 21 22 22 19 18 20 22 22 22
16 18 17 16 17 16 15 15 16 17 17 17 17 18 19 20 19 16 14 14 14 13 14 15 16 18 16 12 11 9 7 6 6 6 6 7 8 7 7 8 9 9 11 13 14 15 16 17 17 16 15 12 11 12 13 13 13 13 14 14 14 13 12 12 12 13 14 15 15 15 15 14 15 16 16 17 18 19 19 18 16 18 20 22 23
14 15 14 12 13 14 14 15 15 16 16 15 16 17 18 17 15 14 15 15 15 15 15 15 17 19 15 11 12 9 7 7 7 7 6 7 7 6 7 8 8 9 10 12 14 15 17 18 18 18 16 13 11 11 11 12 12 13 15 15 15 14 14 13 13 13 14 14 15 14 14 14 15 15 15 16 15 15 16 17 16 17 18 18 19
9 9 8 9 12 13 13 13 15 16 14 13 14 14 12 11 11 13 14 14 14 14 14 15 17 17 12 12 11 9 7 7 8 8 7 6 5 4 5 6 6 8 10 12 13 15 15 16 15 15 15 14 12 11 11 11 12 13 15 16 16 15 15 15 15 15 15 15 15 14 13 13 14 14 16 17 16 14 14 15 15 15 16 16 15
8 7 8 10 12 12 12 14 16 14 11 10 10 7 6 7 8 9 9 10 11 12 13 14 15 13 10 12 11 9 8 8 9 9 7 6 4 3 4 3 3 6 8 10 12 15 16 16 13 12 13 14 14 13 11 10 10 11 13 15 16 16 16 16 16 16 16 16 17 17 17 16 15 15 17 18 17 15 13 12 13 13 14 14 15
6 7 8 10 10 11 13 14 13 10 8 7 5 4 5 6 6 6 7 9 10 11 13 14 14 12 9 11 11 9 9 9 9 10 8 6 3 3 3 1 2 5 7 9 12 14 16 16 15 13 11 11 12 12 11 8 7 7 9 11 13 14 15 16 15 15 15 17 19 19 19 19 16 15 15 16 16 14 12 11 10 11 11 11 12
5 6 8 9 9 9 9 9 8 7 6 4 4 5 5 5 5 4 5 7 8 10 13 15 15 14 12 11 11 10 9 9 10 10 8 5 2 1 1 1 4 5 7 9 11 13 15 16 16 15 13 12 11 11 10 7 6 5 6 8 9 11 13 14 15 14 15 17 19 19 19 20 18 16 14 14 13 12 11 11 10 10 11 11 11
Wind_Direction
70 160 182 179 176 179 186 193 201 209 215 223 230 234 236 238 241 242 245 249 254 259 261 262 258 255 256 250 253 267 271 272 273 276 280 283 286 288 287 287 286 284 282 278 274 270 264 259 255 250 248 247 244 242 243 243 242 241 240 239 239 239 242 243 243 242 243 247 251 254 254 254 255 253 253 254 257 258 259 258 256 254 252 249 246
71 111 149 165 170 170 176 183 193 204 211 222 233 241 247 252 254 254 256 257 263 271 273 274 268 266 269 259 256 277 286 284 285 294 300 299 304 306 303 299 293 289 286 283 279 273 267 262 256 250 247 244 240 242 244 242 242 241 237 234 234 234 237 241 239 232 227 233 239 256 264 261 259 257 255 254 254 255 256 254 253 252 250 249 247
82 90 129 162 176 179 185 190 193 202 211 224 236 245 251 259 265 263 260 259 268 281 291 298 293 292 294 277 270 296 310 306 303 308 307 308 314 316 312 309 303 295 287 283 280 275 271 267 262 257 250 242 238 241 242 240 239 238 234 232 230 230 234 238 237 232 224 221 222 241 264 275 267 259 256 255 253 253 254 253 251 249 248 248 247
122 112 133 163 181 187 191 195 196 200 204 200 191 172 158 137 57 11 260 286 309 316 320 324 323 326 329 321 316 319 319 315 312 310 309 311 311 309 306 305 305 302 296 289 283 279 274 270 266 261 254 245 242 241 239 238 239 236 235 232 226 223 229 234 236 234 226 212 197 214 210 251 269 260 260 260 257 253 251 250 249 248 247 247 247
149 156 179 184 191 193 189 188 189 188 180 164 147 126 113 100 85 79 68 47 25 8 355 353 352 350 347 344 343 334 321 313 309 309 311 309 304 301 299 298 298 299 301 297 290 285 278 271 266 261 256 248 243 241 237 236 236 235 236 232 224 223 227 229 231 231 228 222 209 196 186 205 249 259 276 276 264 253 251 249 247 247 246 246 246
164 170 178 180 183 187 186 183 179 176 166 151 137 118 108 96 83 74 60 50 38 28 17 10 8 4 359 354 347 334 318 308 303 305 305 299 294 294 295 295 293 292 295 295 291 287 281 273 265 261 258 250 245 244 238 234 234 235 236 232 227 229 227 220 223 229 234 232 222 221 230 228 227 232 244 279 272 256 253 251 248 246 245 245 245
178 182 180 176 175 176 180 181 172 162 148 138 131 115 106 91 76 67 54 42 26 12 360 355 355 353 351 348 343 332 314 309 310 308 302 297 294 295 296 295 292 290 289 289 290 289 284 273 263 260 259 253 248 244 238 236 239 239 236 231 233 234 222 206 222 230 230 231 228 229 234 236 236 230 210 258 289 269 255 251 251 248 246 245 245
177 188 194 190 186 180 179 179 171 159 149 140 133 118 107 98 86 77 61 44 30 19 6 358 354 351 352 348 345 337 319 315 317 313 306 303 300 300 301 298 294 291 288 288 290 291 288 275 261 257 257 257 252 247 243 240 240 240 237 236 237 232 218 216 225 226 221 224 227 229 232 236 238 238 235 236 240 273 265 256 256 253 249 248 247
181 187 196 199 197 191 185 180 175 174 172 151 138 130 114 101 92 74 51 37 30 27 20 15 8 2 1 354 350 346 336 331 329 328 325 321 315 312 310 303 298 294 288 287 288 290 289 281 266 262 264 265 261 256 253 246 240 240 241 239 236 227 221 225 226 223 222 227 228 228 231 235 234 233 234 234 234 247 257 257 254 254 253 251 250
195 198 200 200 196 191 186 184 187 194 193 179 168 164 158 144 107 41 22 15 12 12 12 15 16 11 6 359 353 350 345 339 335 337 340 336 331 328 323 312 303 296 290 289 289 289 289 286 275 265 264 266 262 260 259 253 246 247 246 240 239 238 228 225 227 228 227 230 232 230 230 230 225 217 221 229 233 237 243 252 250 248 252 254 253
200 207 211 209 200 191 188 189 195 198 193 192 190 183 181 185 8 7 0 352 349 352 356 1 7 8 4 360 355 351 348 344 337 336 338 335 332 331 329 321 310 300 294 292 293 293 292 287 277 265 262 261 258 260 263 258 249 251 255 251 248 245 236 230 234 238 237 235 236 232 230 229 221 208 210 217 219 221 233 249 247 243 248 254 256
199 201 213 215 206 200 196 189 189 190 188 189 188 183 178 176 3 358 352 344 337 337 341 345 351 355 352 350 348 345 345 344 340 337 337 333 329 327 329 328 323 314 306 303 305 308 306 297 284 274 274 271 262 262 270 268 257 256 262 260 251 244 243 242 242 244 242 237 237 235 235 236 231 227 223 218 217 219 224 236 241 240 243 250 254
201 198 205 209 204 205 199 188 186 184 182 184 185 184 190 227 303 328 340 335 329 328 330 333 337 341 340 336 335 335 336 336 335 337 338 335 330 326 325 327 327 325 321 317 318 321 319 313 302 295 295 293 278 268 269 273 271 267 261 253 248 245 246 244 240 243 242 237 238 238 238 238 236 235 234 227 223 222 222 232 243 239 239 250 254
202 198 198 201 204 205 197 190 189 183 181 185 187 192 212 239 270 304 329 327 322 324 326 328 330 332 330 328 328 330 331 331 329 331 333 331 328 324 323 324 325 325 322 318 317 316 314 312 309 307 308 307 296 279 270 269 270 267 258 253 254 256 255 249 244 244 242 240 240 240 239 237 236 236 235 230 227 224 221 223 234 242 243 250 257
204 201 199 206 206 201 196 194 192 186 184 188 187 192 207 221 235 262 314 319 318 322 324 324 324 326 325 324 326 329 329 328 326 327 328 326 323 319 319 320 319 320 319 316 314 311 310 309 307 308 309 308 304 295 287 282 280 276 271 268 267 265 261 256 252 247 245 243 241 240 240 238 237 237 236 234 232 230 228 224 224 235 246 246 250
198 200 203 208 205 200 199 197 193 188 189 191 191 196 207 216 223 244 293 304 307 312 310 312 321 324 326 327 327 327 326 325 326 328 328 324 321 317 315 314 313 314 313 313 313 312 311 311 309 307 307 307 304 300 296 292 289 285 281 277 272 269 264 260 257 253 250 247 243 241 239 237 239 239 239 239 236 234 234 230 226 227 240 248 246
194 198 199 198 198 203 206 200 193 190 193 197 201 206 212 217 224 245 280 291 295 300 292 300 321 327 329 329 327 326 324 324 326 327 327 326 324 321 316 313 312 311 311 310 310 310 311 312 311 309 308 308 306 303 301 298 293 288 284 280 277 273 268 263 259 256 254 251 248 244 239 239 242 241 240 241 238 236 236 234 232 230 232 237 247
189 194 197 195 196 206 207 200 195 195 201 207 209 212 213 218 229 247 269 280 288 291 283 293 317 326 328 328 327 327 325 322 322 322 323 324 326 329 328 327 323 318 315 313 310 309 312 316 318 318 317 315 313 310 308 305 301 294 286 280 277 275 271 266 261 257 255 252 248 246 243 240 240 239 240 241 240 240 238 236 235 235 233 232 237
186 192 198 198 201 210 206 197 197 200 207 212 211 213 215 222 233 246 265 275 282 288 281 288 309 320 324 326 328 329 326 322 319 317 318 319 324 331 335 337 336 331 322 315 313 314 318 325 326 325 325 325 322 319 316 312 306 298 290 283 278 274 271 267 262 258 255 250 245 245 243 240 238 237 238 241 241 241 239 237 236 235 234 232 232
186 189 198 200 206 212 206 199 200 204 210 212 210 215 220 228 236 246 262 269 275 282 278 282 299 311 319 325 327 326 328 328 326 322 316 312 316 326 333 338 340 339 332 321 316 316 319 322 325 325 326 326 325 323 319 314 306 299 292 286 281 276 272 268 264 258 253 249 245 243 242 240 238 236 236 238 239 239 239 237 236 236 234 233 234
186 188 195 202 208 211 206 202 204 206 212 213 214 220 225 231 239 249 259 264 269 274 272 278 292 305 316 324 324 321 325 330 330 327 319 309 308 317 328 335 337 338 335 326 318 314 313 314 316 318 320 321 321 322 319 314 307 301 294 287 283 279 274 269 265 260 253 248 244 241 241 241 240 236 235 235 235 237 238 237 236 235 234 234 234
186 189 193 200 203 204 201 201 203 207 214 216 217 222 228 233 241 250 255 257 264 270 270 275 290 304 315 322 320 316 320 328 330 332 328 318 310 313 322 330 334 335 332 326 319 313 311 310 310 311 313 315 318 318 316 313 308 302 295 288 284 280 277 271 265 260 254 248 243 241 240 240 240 237 233 233 233 233 234 235 235 234 234 234 232
184 186 193 197 197 197 194 195 201 209 216 217 219 224 230 237 241 248 253 256 264 270 268 270 287 303 312 318 318 314 315 325 333 338 339 334 324 319 320 322 326 328 326 323 320 316 314 313 313 313 312 313 315 316 314 311 308 303 296 290 285 282 279 273 265 260 255 250 244 240 240 239 238 235 232 231 232 231 230 232 233 233 234 235 232
183 184 184 179 182 185 184 191 202 212 218 219 223 228 233 237 241 246 251 257 266 268 261 262 283 302 309 314 317 311 307 318 330 336 341 341 335 328 322 317 316 315 315 317 317 318 322 324 322 320 316 315 317 319 318 315 311 307 301 295 289 284 281 276 268 261 258 253 246 241 240 239 236 233 231 231 231 232 231 231 234 234 234 234 231
182 181 165 159 171 176 180 194 207 214 219 222 226 231 232 236 241 246 250 257 266 267 257 257 277 298 307 311 314 308 303 310 320 326 331 333 335 333 327 321 316 311 311 314 316 320 326 328 327 324 320 320 322 323 325 324 322 321 317 309 299 291 286 281 272 263 258 255 250 245 241 238 234 231 231 232 231 232 232 232 233 234 232 231 230
183 178 167 170 179 180 186 201 212 217 221 224 226 228 230 234 239 243 249 256 263 263 257 257 274 295 305 308 311 307 304 308 313 318 322 325 329 331 329 325 321 318 317 316 316 320 325 326 327 327 325 324 323 324 327 328 327 329 328 323 316 308 300 292 282 270 261 256 252 248 242 237 233 232 232 232 231 232 232 232 231 231 229 227 228
181 173 169 175 180 186 196 208 216 220 223 224 224 225 226 231 239 244 250 256 260 258 254 259 276 294 301 305 309 306 304 307 311 315 317 320 324 326 326 323 319 318 321 322 321 319 320 323 324 324 323 322 321 321 324 326 325 327 330 328 325 318 309 301 292 279 267 259 253 250 246 239 234 234 234 234 233 233 234 232 230 229 226 224 225
174 171 176 181 184 191 203 213 218 221 224 223 221 223 226 234 242 246 249 255 256 252 251 260 277 289 295 302 306 303 303 305 308 313 318 321 324 324 324 322 318 315 315 321 323 316 313 316 317 316 317 319 319 320 322 324 325 327 329 328 325 317 306 299 293 284 273 262 255 253 252 245 239 237 237 235 235 235 234 233 229 227 224 221 222
182 185 187 185 187 193 205 215 218 220 222 220 217 221 229 238 244 247 250 252 249 246 249 261 275 281 289 298 300 299 301 303 306 312 320 325 327 326 325 322 318 313 309 309 310 309 310 313 311 310 314 318 319 320 324 326 327 330 331 328 324 316 306 296 288 282 275 266 257 253 252 248 243 241 240 238 237 236 234 232 229 226 222 219 219
189 190 192 190 192 199 207 213 216 218 218 215 215 224 233 241 245 246 248 245 240 244 252 263 272 278 288 296 298 299 301 302 306 312 320 325 327 327 326 323 319 314 310 307 303 302 306 309 307 307 313 316 316 319 326 328 329 332 333 330 324 317 309 299 287 279 273 267 260 254 251 248 245 243 242 241 240 239 236 233 230 226 221 217 216
192 190 190 194 198 204 209 212 214 216 215 212 218 229 236 243 247 244 243 241 239 246 257 266 272 279 289 297 302 305 305 306 309 315 321 325 325 325 325 322 319 317 316 314 310 305 302 300 301 306 314 316 315 319 327 330 332 336 337 333 327 320 314 307 294 280 272 267 261 256 252 248 245 243 241 241 241 241 239 236 232 229 224 220 217
191 188 191 196 201 206 210 212 214 214 213 214 223 232 238 244 246 244 241 241 242 249 259 267 275 282 289 299 307 307 307 311 315 321 324 323 321 321 324 322 320 320 321 320 319 315 306 297 297 305 311 315 318 322 328 334 338 343 343 339 334 329 324 319 308 290 275 268 263 258 254 251 247 243 241 241 241 241 241 238 234 231 228 225 222
188 187 195 200 203 208 210 211 212 212 211 216 225 231 237 244 247 245 242 241 244 252 260 267 275 282 289 302 307 304 306 313 320 327 326 320 317 319 323 326 325 324 325 324 324 322 313 300 297 302 305 312 321 328 333 336 342 348 349 348 345 340 335 337 334 313 281 264 259 255 253 251 247 244 242 241 241 241 241 240 236 232 230 228 226
184 192 201 204 206 210 214 214 213 212 213 220 226 230 238 245 249 248 245 243 247 253 260 266 275 283 290 301 307 304 306 313 324 331 326 317 316 319 324 331 331 329 330 329 327 326 319 304 294 296 302 311 323 335 336 334 342 351 353 355 356 351 347 355 360 354 335 300 279 267 258 253 250 248 246 243 242 241 240 238 234 231 230 228 227
189 202 208 209 207 209 215 216 215 214 215 220 224 229 236 242 246 247 247 248 251 256 262 267 274 281 288 297 305 306 308 316 326 329 323 317 317 320 326 333 333 331 331 330 330 331 324 311 297 293 300 311 322 335 338 333 341 351 355 1 5 359 358 10 12 9 14 17 359 325 297 278 268 263 257 252 247 244 242 237 229 225 225 225 224
196 201 203 206 206 208 212 214 213 214 217 221 224 228 233 238 243 246 250 254 257 260 265 269 274 281 286 293 301 305 309 318 324 323 319 317 320 324 330 334 332 329 329 330 332 333 329 320 307 296 298 308 320 332 336 333 340 350 354 4 10 3 4 19 20 12 16 25 21 7 352 325 294 277 269 262 255 249 244 237 224 216 217 219 220
201 204 207 208 208 210 213 213 213 215 220 223 225 227 232 238 242 246 251 257 260 261 265 270 276 282 285 289 296 303 308 315 322 322 318 318 322 328 334 336 332 327 325 327 331 333 333 330 321 309 301 304 316 330 333 329 339 350 354 5 13 9 10 21 23 17 17 23 25 23 21 13 354 322 289 271 261 250 238 227 217 209 208 212 216
205 207 212 214 214 216 218 217 217 220 224 225 226 227 232 237 242 247 253 257 260 262 264 268 274 280 284 287 292 299 306 313 320 322 320 320 325 331 337 340 338 334 328 328 330 330 331 333 331 325 314 303 311 329 335 331 338 349 354 2 12 15 14 18 22 19 18 22 26 28 29 27 22 12 345 297 272 251 231 218 212 206 202 204 210
213 211 214 217 219 221 223 222 221 225 228 227 226 228 230 235 242 249 254 257 260 264 266 269 274 278 280 285 290 295 302 308 311 316 320 321 323 331 340 345 346 344 338 333 331 326 325 330 333 333 328 312 310 328 339 337 342 349 351 356 7 16 16 14 14 14 15 22 28 29 29 29 30 30 26 13 343 267 229 219 212 205 200 202 205
211 216 220 222 221 220 220 221 224 228 230 227 226 226 228 234 243 250 253 257 263 270 276 279 279 278 276 280 286 290 295 298 298 307 317 318 319 333 346 349 349 347 341 334 330 325 323 326 329 332 335 325 309 321 336 340 345 350 350 349 357 9 14 12 9 7 12 21 27 28 27 26 27 33 36 35 33 38 196 209 205 199 197 199 200
210 215 218 220 222 222 223 226 229 231 230 227 225 224 226 234 243 248 253 261 270 280 287 289 286 280 274 276 281 284 288 289 291 303 314 314 316 332 344 348 349 349 347 340 334 326 322 325 329 333 338 336 316 310 325 336 344 351 352 351 351 355 2 6 4 3 9 21 28 29 28 26 25 30 37 40 42 46 60 87 141 186 197 197 192
218 219 217 217 221 224 226 230 232 229 227 227 224 223 227 235 241 246 256 267 276 283 289 292 291 281 271 271 275 277 281 282 286 300 310 309 313 324 333 342 347 348 351 350 345 338 331 332 335 337 342 346 336 316 317 327 336 343 349 353 353 350 350 352 355 358 4 15 25 30 31 29 27 28 34 39 42 45 50 55 63 105 184 203 201
214 218 219 217 219 223 227 230 230 226 226 227 224 225 231 236 240 248 259 270 277 283 287 290 289 281 270 267 268 267 273 278 282 294 301 303 310 318 326 338 346 348 351 351 351 352 346 341 341 341 344 350 349 339 331 332 333 334 336 342 349 352 351 347 345 349 356 3 11 22 31 32 28 28 32 37 41 45 49 50 54 67 96 151 188
215 219 220 217 219 225 229 231 229 225 227 227 226 229 232 235 242 252 261 269 278 283 283 284 287 281 271 264 255 253 268 276 274 282 294 302 312 318 327 340 345 350 352 350 349 351 347 340 338 339 344 350 351 351 351 348 346 346 341 337 340 346 353 356 353 350 352 356 1 10 24 31 28 28 35 40 40 42 45 49 53 58 71 92 111
226 228 227 222 224 228 230 231 228 225 228 231 231 232 232 236 248 256 260 269 283 287 280 282 289 287 276 258 240 243 263 264 255 268 290 302 309 317 331 339 341 347 350 348 347 346 342 338 334 335 342 350 352 352 352 351 353 356 357 352 346 344 348 354 360 1 0 1 4 10 20 28 25 26 35 43 46 44 42 46 54 57 62 73 81
238 241 239 230 228 230 229 228 229 228 230 235 238 237 237 242 251 258 264 277 290 288 281 282 287 291 283 252 228 236 247 237 239 261 286 301 306 315 333 336 335 342 347 347 346 344 341 338 336 335 337 342 350 353 351 350 350 354 359 1 358 354 351 348 350 355 359 4 9 13 19 22 20 19 26 35 46 52 47 44 51 56 56 61 68
246 252 249 234 224 223 222 225 230 230 233 241 245 245 244 248 258 271 279 286 288 285 286 289 291 293 282 239 220 229 226 222 242 258 275 298 306 319 335 333 330 338 344 346 348 348 346 341 337 335 335 336 346 354 351 349 351 351 355 359 0 0 359 355 352 350 353 359 3 6 15 22 21 20 23 27 38 53 56 53 55 58 59 60 62
269 269 260 237 226 223 221 225 230 231 235 245 248 248 251 264 279 286 286 285 281 282 292 300 301 296 272 228 219 225 217 222 246 252 266 298 310 321 334 332 334 344 351 355 358 0 0 355 346 339 336 334 340 349 351 351 350 349 351 354 357 360 0 1 360 355 354 358 0 4 17 27 26 24 26 30 35 46 57 62 63 64 64 65 65
272 258 238 226 225 224 223 227 232 238 247 254 253 258 281 293 290 286 280 274 272 281 296 305 308 299 261 223 222 230 225 232 247 251 267 299 307 314 327 330 354 11 16 20 19 17 16 15 10 357 343 335 336 341 345 347 346 348 351 352 354 358 1 3 2 0 360 1 2 6 14 20 23 25 25 28 33 40 49 59 64 67 67 68 69
251 237 225 223 225 225 227 234 244 259 274 277 273 284 296 288 275 268 264 263 269 283 297 303 308 303 266 233 234 240 238 244 254 258 272 295 296 304 320 332 73 54 39 34 31 26 21 20 22 18 6 353 342 338 336 337 343 353 355 354 357 2 5 6 6 8 12 13 10 10 10 9 11 19 22 24 28 33 41 51 60 68 71 70 70
217 216 216 219 224 229 238 251 268 283 290 291 289 281 272 266 261 256 261 269 279 291 299 303 307 305 285 258 250 252 253 257 258 259 271 287 276 257 320 99 110 83 53 38 35 32 25 21 20 20 20 17 6 354 343 337 344 359 1 360 4 10 14 16 15 17 23 23 18 15 13 10 11 14 18 23 30 36 41 46 54 65 72 74 72